Location: Poughquag
(41.6090°N, 73.6820°W)
Time: 12:46:21
(UTC-04:00)

Vanguard 2 Rocket - Pass Details

Date: 04 June 2020
Orbit: 556 x 3324 km, 32.9° (Epoch: 06 July)

Event Time Altitude Azimuth Distance (km) Brightness Sun altitude
Rises 18:19:06 0° 268° (W) 4,255 11.7 20.9°
Reaches altitude 10° 18:21:38 10° 262° (W) 3,576 11.5 20.5°
Maximum altitude 18:30:45 46° 193° (SSW) 2,631 9.5 18.8°
Drops below altitude 10° 18:45:52 10° 128° (SE) 5,774 10.5 16.1°
Sets 18:51:17 0° 123° (ESE) 7,062 10.8 15.1°
